OH6GPB-4 Weather Reports


Display with metric or nautical units.
time (UTC)temp
F
wind
direction
speed
MPH
gust
MPH
rain 1hr
in
rain 24hr
in
rain mn
in
humidity
%
barometer
mb
20260507074729 42 224 0.0 1.0 0.00 0.00 0.00 71 1013.7
20260507071739 42 230 0.0 3.0 0.00 0.00 0.00 70 1013.7
20260507064733 42 231 0.0 2.0 0.00 0.00 0.00 73 1013.5
20260507061732 42 288 5.0 7.0 0.00 0.00 0.00 73 1013.0
20260507054732 42 288 2.0 10.0 0.00 0.00 0.00 71 1013.0
20260507051741 40 202 0.0 4.0 0.00 0.00 0.00 71 1012.7
20260507044727 38 200 0.0 3.0 0.00 0.00 0.00 71 1012.7
20260507041730 37 201 1.0 3.0 0.00 0.00 0.00 73 1012.7
20260507034737 34 201 1.0 4.0 0.00 0.00 0.00 78 1012.5
20260507031726 32 201 2.0 4.0 0.00 0.00 0.00 83 1012.2
20260507024735 31 201 0.0 0.0 0.00 0.00 0.00 84 1012.1
20260507021740 30 201 0.0 0.0 0.00 0.00 0.00 82 1012.1
20260507014721 31 201 0.0 1.0 0.00 0.00 0.00 81 1012.1
20260507011723 32 201 0.0 3.0 0.00 0.00 0.00 80 1012.1
20260507004739 33 201 0.0 1.0 0.00 0.00 0.00 79 1011.7
20260507001734 33 201 1.0 3.0 0.00 0.00 0.00 79 1011.9
20260506234736 33 201 1.0 2.0 0.00 0.00 0.00 78 1011.7
20260506231736 34 201 0.0 1.0 0.00 0.00 0.00 76 1011.6
20260506224738 35 201 0.0 0.0 0.00 0.00 0.00 74 1011.5
20260506221736 37 201 0.0 0.0 0.00 0.00 0.00 72 1011.2
20260506214727 38 201 0.0 2.0 0.00 0.00 0.00 69 1011.1
20260506211728 39 201 1.0 2.0 0.00 0.00 0.00 66 1011.0
20260506204730 41 201 0.0 3.0 0.00 0.00 0.00 63 1011.0
20260506201723 41 232 1.0 6.0 0.00 0.00 0.00 59 1010.9
20260506194737 41 219 0.0 5.0 0.00 0.00 0.00 62 1010.6
20260506191732 41 226 1.0 5.0 0.00 0.00 0.00 65 1010.6
20260506184728 42 247 0.0 5.0 0.00 0.00 0.00 62 1010.6
20260506181730 43 245 1.0 3.0 0.00 0.00 0.00 56 1010.2
20260506174730 45 249 2.0 5.0 0.00 0.00 0.00 55 1010.1
20260506171734 45 269 3.0 12.0 0.00 0.00 0.00 52 1009.9
20260506164736 45 210 3.0 9.0 0.00 0.00 0.00 53 1009.6
20260506161733 45 274 6.0 11.0 0.00 0.00 0.00 53 1009.5
20260506154740 47 258 3.0 6.0 0.00 0.00 0.00 52 1009.3
20260506151740 46 264 5.0 16.0 0.00 0.00 0.00 52 1009.1
20260506144727 47 250 3.0 13.0 0.00 0.00 0.00 51 1009.0
20260506141732 46 212 3.0 16.0 0.00 0.00 0.00 52 1009.0
20260506134733 46 200 4.0 11.0 0.00 0.00 0.00 51 1009.0
20260506131736 46 188 4.0 12.0 0.00 0.00 0.00 51 1008.8
20260506124720 46 258 4.0 11.0 0.00 0.00 0.00 48 1008.5
20260506121735 45 240 5.0 15.0 0.00 0.00 0.00 50 1008.6
20260506114739 44 265 4.0 12.0 0.00 0.00 0.00 54 1008.5
20260506111732 43 257 6.0 16.0 0.00 0.00 0.00 58 1008.0
20260506104728 42 245 7.0 17.0 0.00 0.00 0.00 59 1007.9
20260506101727 42 253 4.0 12.0 0.00 0.00 0.00 60 1007.5
20260506094722 42 221 2.0 11.0 0.00 0.00 0.00 61 1007.1
20260506091721 43 270 5.0 12.0 0.00 0.00 0.00 59 1006.8
20260506084725 42 246 3.0 11.0 0.00 0.00 0.00 59 1006.7
20260506081733 41 252 4.0 17.0 0.00 0.00 0.00 60 1006.4